STARLINK-1086 (44964 NORAD) Tracking and Keplerian Element Data

This shows tracking and keplerian element data for the satellite.

Feedback or suggestion? Click here.




ElementValue
Catalog44964
NameSTARLINK-1086
Epoch Orbit728
Epoch Day53.25001157
Epoch Year2020
RAAN167.196
Inclination52.9958
Eccentricity0.0001519
Argument of Perigee16.9099
Mean Anonmoly112.5086
Mean Motion15.73146321
Decay Rate0.00289808
L11 44964U 20001BC 20053.25001157 .00289808 00000-0 20030-2 0 9993
L22 44964 52.9958 167.1960 0001519 16.9099 112.5086 15.73146321 7280

Live tracking and technical data element details for STARLINK-1086 (NORAD 44964). STARLINK-1086 can be tracked NOW for your location showing map with azimuth and elevation plus other details from your city location.

Track the satellite on the map from your city or location and see movement details for azimuth, elevation, latitude, longitude, range, height, and movement on the map or in text.







IsCatalogInMostPopularTable: catalog: 44964, numindb: 18
Update: records affected: 1



GetName: 44964 STARLINK-1086

Hit Count: updated at: Wed, 26 Feb 2020 15:11:22 GMT